Regional Weather Roundup
Issued by NWS

Home | Current Version | Previous Version | Text Only | Print | Product List | Glossary On
Versions: 1 2 3 4 5 6 7 8 9 10 11 12 13 14 15 16 17 18 19 20 21 22 23 24 25 26 27 28 29 30 31 32 33 34 35 36 37 38 39 40 41 42 43 44 45 46 47 48 49 50
000
ASUS44 KLIX 300811
RWRLA
LOUISIANA WEATHER ROUNDUP
NATIONAL WEATHER SERVICE NEW ORLEANS LA
300 AM CDT TUE JUN 30 2015

NOTE: "FAIR" INDICATES FEW OR NO CLOUDS BELOW 12,000 FEET WITH NO
      SIGNIFICANT WEATHER AND/OR OBSTRUCTIONS TO VISIBILITY.
      SKY/WX - SKY CONDITION AND SIGNIFICANT WEATHER.
      TMP - AIR TEMPERATURE.    DP   - DEWPOINT TEMPERATURE.
      RH  - RELATIVE HUMIDITY.  PRES - PRESSURE.
      HX  - HEAT INDEX.         WCI  - WIND CHILL INDEX.

*  THESE STATIONS ARE NOT NWS OR FAA STATIONS AND ARE NOT UNDER
   NWS QUALITY CONTROL.

LAZ040-048-061>063-065-066-069-300900-
SOUTHEAST LOUISIANA

CITY           SKY/WX    TMP DP  RH WIND       PRES   REMARKS
N.O. AUDUBON     N/A     79  78  98 MISG        N/A
N.O. INTL ARPT CLOUDY    78  70  76 SW7       30.04F
N.O. LAKEFRONT CLOUDY    83  72  69 SW13      30.03F
N.O. DOWNTOWN* FAIR      82  73  74 SW5       30.05F
RESERVE*       FAIR      76  71  84 SW3       30.04F
SLIDELL        MOCLDY    79  69  71 VRB3      30.01F
BATON ROUGE    PTCLDY    72  68  87 S5        30.02F
BOOTHVILLE     MOCLDY    83  76  79 W10       30.07S
BELLE CHASSE   MOCLDY    78  75  90 SW6       30.04F
BOGALUSA*      LGT RAIN  74  69  82 CALM      30.03F
GALLIANO*      PTSUNNY   79  75  88 CALM      30.06F
NEW ROADS*     FAIR     N/A N/A N/A S5        30.02F
GONZALES*      FAIR      73  69  87 CALM      30.04S
HAMMOND*       MOCLDY    73  64  73 SW6       30.02F
HOUMA*         MOCLDY    76  75  97 CALM      30.05F
PORT FOURCHON* MOSUNNY   82  75  78 SW8       30.06F

$$

LAZ041-044-053-054-300900-
SOUTHWEST LOUISIANA

CITY           SKY/WX    TMP DP  RH WIND       PRES   REMARKS
LAKE CHARLES   CLOUDY    81  76  84 CALM      30.04R
LAFAYETTE      PTCLDY    76  74  93 NE3       30.04F
PATTERSON      CLOUDY    77  73  88 CALM      30.06F
SALT POINT       N/A     83  76  79 VRB6      30.03F
NEW IBERIA     MOCLDY    78  75  90 E5        30.04F
CHENAULT AIRPK CLOUDY    78  77  95 CALM      30.05R

$$

LAZ027-028-300900-
CENTRAL LOUISIANA

CITY           SKY/WX    TMP DP  RH WIND       PRES   REMARKS
FORT POLK      PTCLDY    77  76  95 S7        30.01F
ALEXANDRIA INT CLOUDY    73  71  93 S6        30.00F
ALEXANDRIA     MOCLDY    73  70  90 SW7       30.01F

$$

LAZ001-002-300900-
NORTHWEST LOUISIANA

CITY           SKY/WX    TMP DP  RH WIND       PRES   REMARKS
SHREVEPORT     MOCLDY    76  71  85 S9        29.97R
BARKSDALE AFB  PTCLDY    76  70  81 SW9       29.97S
DTN SHREVEPORT PTCLDY    76  70  82 S12       29.97R

$$

LAZ014-016-300900-
NORTHEAST LOUISIANA

CITY           SKY/WX    TMP DP  RH WIND       PRES   REMARKS
MONROE         PTCLDY    77  73  87 W9        29.99R
TALLULAH       CLOUDY    73  68  84 S5        29.98S

$$



USA.gov is the U.S. government's official web portal to all federal, state and local government web resources and services.